Regional Weather Roundup
Issued by NWS Wakefield, VA

Home | Current Version | Previous Version | Text Only | Print | Product List | Glossary On
Versions: 1 2 3 4 5 6 7 8 9 10 11 12 13 14 15 16 17 18 19 20 21 22 23 24 25 26 27 28 29 30 31 32 33 34 35 36 37 38 39 40 41 42 43 44 45 46 47 48 49 50
000
ASUS41 KAKQ 062010
RWRAKQ

REGIONAL WEATHER ROUNDUP
NATIONAL WEATHER SERVICE WAKEFIELD VA
300 PM EST FRI MAR 06 2015

Note: "fair" indicates few or no clouds below 12,000 feet with no
significant weather and/or obstructions to visibility. * = Denotes
station may not report precipitation (e.g., rain,snow,etc.),
thunder or fog.

VAZ042-051-052>054-056-062100-
NORTHERN VIRGINIA

CITY           SKY/WX    TMP DP  RH WIND       PRES   REMARKS
WASH NATIONAL  MOSUNNY   29   6  38 N3        30.50F
DULLES         SUNNY     24   4  42 W5        30.48F
FORT BELVOIR   SUNNY     27   6  41 CALM      30.50F
QUANTICO       SUNNY     25  11  55 E6        30.52F
FREDERICKSBRG* SUNNY     30  11  46 CALM      30.50F
STAFFORD*      SUNNY     26   4  38 CALM      30.53F
WARRENTON      SUNNY     29  12  50 CALM      30.48F
CULPEPER*      SUNNY     28   3  34 CALM      30.49S
MANASSAS*      SUNNY     25   7  46 CALM      30.50F
LEESBURG*      SUNNY     27   9  46 CALM      30.49F
WINCHESTER     SUNNY     30  -4  22 SE3       30.44F
FRONT ROYAL*   FAIR      27   5  39 CALM      30.44F
LURAY*         FAIR      30   9  40 CALM      30.42F
$$

VAZ048-049-060>072-079>083-062100-
CENTRAL AND SOUTH CENTRAL VIRGINIA

CITY           SKY/WX    TMP DP  RH WIND       PRES   REMARKS
RICHMOND       MOSUNNY   31  12  45 N6        30.48F
CHESTERFIELD*  FAIR      28   3  34 CALM      30.49F
PETERSBURG*    SUNNY     32  12  44 NE3       30.48F
HANOVER        SUNNY     29  11  47 VRB3      30.49F
TAPPAHANNOCK*  SUNNY     28   7  41 CALM      30.50F
QUINTON*       FAIR      28  10  47 N7        30.49F
CHARLOTTSVILLE SUNNY     27   5  39 CALM      30.44F
GORDONSVILLE*  FAIR      26   4  39 NE3       30.46F
ORANGE*        SUNNY     28   3  34 CALM      30.49S
LOUISA*        SUNNY     28   7  40 CALM      30.46S
BUMPASS*       FAIR      27   6  42 NW3       30.48F
FARMVILLE*     SUNNY     36  12  37 CALM        N/A
CREWE*         FAIR      31   8  37 NE5       30.46F
FORT PICKETT*  FAIR      30  13  49 N6        30.45F
CHASE CITY*    FAIR      33  16  49 N5        30.44F
CLARKSVILLE*   FAIR      32  12  43 N3        30.44F
SOUTH HILL*    SUNNY     32  12  43 N6        30.50F
LAWRENCEVILLE* FAIR      32  13  45 N6        30.44F
EMPORIA*       SUNNY     32  14  47 W7        30.48S
$$

VAZ088>098-062100-
SOUTHEAST VIRGINIA

CITY           SKY/WX    TMP DP  RH WIND       PRES   REMARKS
NORFOLK        SUNNY     27  14  58 N14       30.48F WCI  16
VIRGINIA BEACH MOSUNNY   30  17  58 N16       30.47F WCI  19
NORFOLK NAVAL  MOSUNNY   30  13  49 N15       30.50F WCI  19
WEST POINT*    SUNNY     32  14  47 NW6       30.50F
SALUDA*        FAIR      27  13  56 N6        30.49F
NEWPORT NEWS   SUNNY     30  18  60 E14       30.48F WCI  19
LANGLEY AFB    SUNNY     27  15  61 NE13      30.48F WCI  16
FORT EUSTIS    SUNNY     32  15  51 N7        30.45
WILLIAMSBURG*    N/A    N/A N/A N/A MISG      30.47F
HR EXEC AP*      N/A    N/A N/A N/A MISG        N/A
FRANKLIN*      SUNNY     32  19  57 N5        30.47S
WAKEFIELD      SUNNY     32  12  43 MISG      30.47F
$$

VAZ020-022-025-037-045-062100-
WEST CENTRAL AND SOUTHWEST VIRGINIA

CITY           SKY/WX    TMP DP  RH WIND       PRES   REMARKS
STAUNTON*      SUNNY     24   8  49 CALM      30.43F
WAYNESBORO*    FAIR      22   7  52 CALM      30.39F
HOT SPRINGS VA MOSUNNY   22  16  79 CALM      30.20S
LYNCHBURG      SUNNY     29  11  47 CALM      30.43F
DANVILLE       SUNNY     36  11  35 CALM      30.43F
SOUTH BOSTON*  FAIR      33  13  44 N5        30.45F
MARTINSVILLE   SUNNY     37  14  38 NE3       30.42F
ROANOKE        SUNNY     29  10  45 CALM      30.42F
BLACKSBURG     SUNNY     27  12  53 NW5       30.36F
DUBLIN*        SUNNY     30  18  62 CALM      30.34F
MARION*        MOSUNNY   33  23  69 W13G18    30.32F WCI  23
HILLSVILLE*    SUNNY     32  14  47 CALM      30.27F
RICHLANDS*     FAIR      28  15  58 W6        30.31S
WISE*          MOSUNNY   32  19  59 N5        30.33F
ABINGDON*      SUNNY     33  25  70 W9        30.35S
$$

MDZ021>025-VAZ099-100-062100-
SOUTHERN MARYLAND AND THE DELMARVA PENINSULA

CITY           SKY/WX    TMP DP  RH WIND       PRES   REMARKS
PATUXENT RIVER MOSUNNY   21   7  54 NE9       30.51F
BAY BRIDGE APT   N/A     25   5  42 CALM      30.52F
LEONARDTOWN    SUNNY     25  12  58 N3        30.52F
DOVER          SUNNY     22   9  56 N5        30.50F
GEORGETOWN     SUNNY     25  10  53 NE7       30.50F
EASTON         SUNNY     25   9  50 NE6       30.54F
CAMBRIDGE      SUNNY     27   9  46 NW3       30.50F
SALISBURY      MOSUNNY   29  13  51 CALM      30.48F
OCEAN CITY     MOSUNNY   25  14  63 NE10      30.50F WCI  15
WALLOPS ISLAND MOSUNNY   26  18  71 E13       30.49F WCI  15
ACCOMACK*      CLOUDY    28  18  64 NW12      30.48S WCI  18
$$

NCZ012>017-030>032-062100-
NORTH CENTRAL AND EASTERN NORTH CAROLINA

CITY           SKY/WX    TMP DP  RH WIND       PRES   REMARKS
ROANOKE RAPIDS FAIR      34  14  44 N7        30.45F
RALEIGH        MOSUNNY   36  10  34 VRB5G16   30.43F
ELIZABETH CITY SUNNY     33  21  61 N13       30.44F WCI  24
AHOSKIE*       SUNNY     33  16  49 N8        30.46F
EDENTON*       SUNNY     35  19  51 N13G18    30.44F
CURRITUCK*     SUNNY     31  16  55 N13G18    30.46S WCI  21
KILL DEVIL HLS CLOUDY    29  23  79 N13G24    30.41S WCI  18
MANTEO         CLOUDY    28  22  78 N18G25    30.43S WCI  16
CAPE HATTERAS  CLOUDY    31  26  82 N14G28    30.38S WCI  21
TARBORO*       FAIR      36  17  44 N7        30.45F
GOLDSBORO      SUNNY     36  22  55 N10       30.40F
WASHINGTON     SUNNY     36  22  56 NE7       30.42F
GREENVILLE     SUNNY     36  19  51 NE6       30.43F
NEW BERN       PTSUNNY   41  22  46 N14       30.40F
WILMINGTON     CLOUDY    43  25  49 NW13      30.37F
$$

VAZ048-062100-
ELSEWHERE

CITY           SKY/WX    TMP DP  RH WIND       PRES   REMARKS
HARRISBURG PA  MOSUNNY   21   3  45 NW8       30.47F
BALTIMORE      SUNNY     26   6  42 CALM      30.48F
ANNAPOLIS      SUNNY     22  10  60 SE8       30.51F
ANDREWS AFB    SUNNY     23   6  47 SE2       30.48F
PHILADELPHIA   SUNNY     25   8  48 VRB3      30.49F
HENDERSON NC   SUNNY     33   7  33 NE6       30.43F
GREENSBORO     SUNNY     34  18  52 VRB5      30.39F
ROCKY MOUNT    SUNNY     36  15  42 NE7G16    30.44F
$$

VAZ100-062100-
MARINE

STATION/POSITION TIME  TEMP    WIND        PRES    WAVE   SWELL
                       AIR SEA DIR/SP/G            HT/PER HT/PER
                 (UTC) (F)     (DEG/KT/KT) (MB)    (FT/S) (FT/S)
BRANDYWINE LGT   2000   20 31  330/  6/  9 1032.9F
CAPE MAY NJ      2000   24 33  300/  6/  9 1032.5S
LEWES DE         2000   21 31  340/  4/  7 1032.9F
15NM E FENWICK I 2000   24 36              1032.2F   4/ 7
OCEAN-CITY-INLET 2000   24 32   50/  3/  8 1032.4S
WACHAPREAGUE VA  2000   27 37   60/  5/  8 1032.0S
THOMAS POINT MD  2000           30/  3/  4   N/A
COVE POINT MD    2000   19      20/  6/  8 1033.1F
SOLOMONS ISLAND  2000      33                N/A
BISHOPS HEAD MD  2000   24 33   40/  7/ 10 1032.4F
CAMBRIDGE MD     2000   23 32  300/  2/  7 1033.0F
LEWISETTA VA     2000      32  360/  3/  5 1032.9F
RAPPAHANNOCK LGT 2000          350/ 11/ 13 1033.1F
STINGRAY PT      2000   23      30/ 14/ 16   N/A
YORK RVR RNG VA  2000   24      50/ 14/ 16 1034.1S
YORKTOWN VA      2000   27 35   70/ 12/ 14 1032.1F
DOMINION TERM VA 2000   27      20/  8/ 13 1032.3F
KIPTOPEKE VA     2000      39  340/ 15/ 19   N/A
CHES BAY BRIDGE  2000   23 34  340/ 14/ 17 1031.8F
CAPE HENRY VA    2000   23     330/ 16/ 19 1030.5F
CHESAPEAKE LGHT  1900   23     360/ 18/ 20 1032.3F
WILLOUBY STN VA  2000           40/ 15/ 17 1032.7S
S CRANEY ISL VA  2000           20/ 12/ 16 1032.2S
CAPE HENRY BUOY  2000      35                N/A     5/ 7
1ST LANDING BUOY 2000   24     350/ 16/ 19 1031.7S
OFFSHORE WE BUOY 2000      36                N/A     7/ 8   3/ 8
64NM E OF VA BCH 2000   36 51  360/ 21/ 27 1028.3F   8/ 8   5/ 8
DUCK PIER NC     2000   26 35  350/ 24/ 27 1029.1F
44100 DUCK FRF   2000      37                N/A     8/ 8   2/11
44056 DUCK FRF   2000      35                N/A     7/ 8   2/11
OREGON INLET NC  2000   29 38  340/ 17/ 25 1029.6F
HATTERAS NC      2000   31 43   10/ 26/ 30 1028.9F
CAPE LOOKOUT NC  2000          360/ 16/ 19 1028.4F
$$


USA.gov is the U.S. government's official web portal to all federal, state and local government web resources and services.